Regional Weather Roundup
Issued by NWS

Home | Current Version | Previous Version | Text Only | Print | Product List | Glossary On
Versions: 1 2 3 4 5 6 7 8 9 10 11 12 13 14 15 16 17 18 19 20 21 22 23 24 25 26 27 28 29 30 31 32 33 34 35 36 37 38 39 40 41 42 43 44 45 46 47 48 49 50
000
ASUS44 KBMX 281910
RWRAL

ALABAMA REGIONAL WEATHER ROUNDUP
NATIONAL WEATHER SERVICE BIRMINGHAM AL
200 PM CDT SUN AUG 28 2016

NOTE: "FAIR" INDICATES FEW OR NO CLOUDS BELOW 12,000 FEET
WITH NO SIGNIFICANT WEATHER AND/OR OBSTRUCTIONS TO VISIBILITY.

THE REMARK "TC" DENOTES TEMPERATURE IN DEGREES CELSIUS.

ALZ001>011-014-016>018-020-282000-
NORTH ALABAMA

CITY           SKY/WX    TMP DP  RH WIND       PRES   REMARKS
MUSCLE SHOALS  SUNNY     93  69  45 SE7       30.13F HX  98
HUNTSVILLE     PTSUNNY   93  70  46 VRB6      30.12F HX  99
DECATUR        MOSUNNY   93  70  46 E8        30.12F HX  99
HALEYVILLE     NOT AVBL
GADSDEN        SUNNY     92  72  51 E10       30.11F HX  99
$$

ALZ012-013-022-023-030>036-040>044-282000-
WEST CENTRAL ALABAMA

CITY           SKY/WX    TMP DP  RH WIND       PRES   REMARKS
TUSCALOOSA     PTSUNNY   89  69  51 E9        30.07F HX  93
$$

ALZ015-024>027-033>036-040>044-282000-
CENTRAL ALABAMA

CITY           SKY/WX    TMP DP  RH WIND       PRES   REMARKS
BIRMINGHAM     MOSUNNY   92  69  47 NE8G17    30.11F HX  97
MONTGOMERY     MOSUNNY   94  66  39 E16       30.06F HX  97
SHELBY CO ARPT MOSUNNY   90  70  51 VRB7      30.09F HX  95
MAXWELL AFB    MOSUNNY   92  69  47 E13       30.05F HX  96
GREENVILLE     FAIR      94  70  45 E7        30.04F HX 100
$$

ALZ019-021-028-029-037-038-045>048-282000-
EAST CENTRAL ALABAMA

CITY           SKY/WX    TMP DP  RH WIND       PRES   REMARKS
ANNISTON       SUNNY     92  67  43 E10G16    30.10F HX  95
ALEXANDER CITY SUNNY     91  78  63 E6        30.11F HX 105
AUBURN         CLOUDY    89  70  53 NE8       30.11F HX  94
$$

ALZ051>064-282000-
SOUTHWEST ALABAMA

CITY           SKY/WX    TMP DP  RH WIND       PRES   REMARKS
MOBILE         CLOUDY    87  74  64 NE6       30.02S HX  95
BROOKLEY FIELD CLOUDY    87  76  69 CALM      30.02S HX  97
EVERGREEN      MOSUNNY   92  74  55 E8        30.03F HX 101
$$

ALZ049-050-065>069-282000-
SOUTHEAST ALABAMA

CITY           SKY/WX    TMP DP  RH WIND       PRES   REMARKS
DOTHAN         MOSUNNY   91  72  53 NE14      30.06F HX  98
OZARK          MOSUNNY   91  73  54 NE10      30.02F HX  99
TROY           MOSUNNY   93  66  40 E9        30.06F HX  96
EUFAULA        FAIR      96  68  39 E12       30.04F HX 101
$$



USA.gov is the U.S. government's official web portal to all federal, state and local government web resources and services.